Printer-friendly version

IAU Minor Planet Center

Minor Planet Center

MPEC 2008-J63 : 2008 JP24

The following Minor Planet Electronic Circular may be linked-to from your own Web pages, but must not otherwise be redistributed electronically.


Read MPEC 2008-J62 Read MPEC 2008-J64


M.P.E.C. 2008-J63                                Issued 2008 May 12, 16:33 UT

     The Minor Planet Electronic Circulars contain information on unusual
         minor planets and routine data on comets.  They are published
   on behalf of Commission 20 of the International Astronomical Union by the
          Minor Planet Center, Smithsonian Astrophysical Observatory,
                          Cambridge, MA 02138, U.S.A.

             Prepared using the Tamkin Foundation Computer Network

                              MPC@CFA.HARVARD.EDU
          URL http://www.cfa.harvard.edu/iau/mpc.html  ISSN 1523-6714

                                   2008 JP24

Observations:
     K08J24P* C2008 05 10.59639 14 00 59.04 -24 15 11.9          18.2 V EJ063E12
     K08J24P  C2008 05 10.60861 14 01 18.01 -24 16 02.1          18.2 V EJ063E12
     K08J24P  C2008 05 10.62087 14 01 37.02 -24 16 50.3          18.2 V EJ063E12
     K08J24P  C2008 05 10.63673 14 02 01.660-24 17 51.54         18.3 R EJ063E12
     K08J24P  C2008 05 10.65156 14 02 21.77 -24 16 07.0          17.9 R EJ063474
     K08J24P  C2008 05 10.65237 14 02 23.15 -24 16 09.7          17.7 R EJ063474
     K08J24P  C2008 05 10.65318 14 02 24.42 -24 16 12.7          18.2 R EJ063474
     K08J24P  C2008 05 10.65399 14 02 25.74 -24 16 15.5          18.3 R EJ063474
     K08J24P  C2008 05 10.65469 14 02 26.88 -24 16 17.9          18.3 R EJ063474
     K08J24P  C2008 05 10.65550 14 02 28.20 -24 16 20.9          18.4 R EJ063474
     K08J24P  C2008 05 10.68507 14 03 17.022-24 20 43.90         18.3 R EJ063E12
     K08J24P  C2008 05 10.74309 14 04 48.72 -24 23 49.2          18.3 R EJ063E12
     K08J24P  C2008 05 10.94704 14 10 39.26 -24 48 33.4          18.4 R EJ063113
     K08J24P  C2008 05 10.94753 14 10 39.93 -24 48 35.0          18.0 R EJ063113
     K08J24P  C2008 05 10.94802 14 10 40.60 -24 48 36.7          18.5 R EJ063113
     K08J24P  C2008 05 10.94852 14 10 41.31 -24 48 38.3          17.7 R EJ063113
     K08J24P  C2008 05 10.94902 14 10 41.99 -24 48 40.2          17.9 R EJ063113
     K08J24P  C2008 05 11.10931 14 14 35.24 -24 50 08.3          18.0 R EJ063I77
     K08J24P  C2008 05 11.11011 14 14 36.23 -24 50 10.7          18.0 R EJ063I77
     K08J24P  C2008 05 11.11092 14 14 37.24 -24 50 13.0          17.9 R EJ063I77
     K08J24P  C2008 05 11.22173 14 17 26.36 -25 01 55.2          18.8 R EJ063651
     K08J24P  C2008 05 11.22302 14 17 27.93 -25 01 58.4          18.8 R EJ063651
     K08J24P  C2008 05 11.22367 14 17 28.60 -25 02 00.8          18.7 R EJ063651
     K08J24P  C2008 05 11.38686 14 21 10.52 -24 59 58.6          19.1 R EJ063474
     K08J24P  C2008 05 11.38767 14 21 11.49 -25 00 01.4          18.3 R EJ063474
     K08J24P  C2008 05 11.38848 14 21 12.39 -25 00 04.1          18.5 R EJ063474
     K08J24P  C2008 05 11.46389 14 22 36.43 -25 03 48.2          18.6 R EJ063474
     K08J24P  C2008 05 11.46597 14 22 38.71 -25 03 53.4          18.8 R EJ063474
     K08J24P  C2008 05 11.46736 14 22 40.21 -25 03 57.4          18.6 R EJ063474
     K08J24P  C2008 05 11.54326 14 24 10.66 -25 08 48.0          18.4 R EJ063E12
     K08J24P  C2008 05 11.54504 14 24 12.50 -25 08 52.6          18.5 R EJ063E12
     K08J24P  C2008 05 11.58171 14 24 42.49 -25 08 18.3          18.5 R EJ063474
     K08J24P  C2008 05 11.58310 14 24 43.96 -25 08 20.9          18.7 R EJ063474
     K08J24P  C2008 05 11.58646 14 24 47.54 -25 08 27.4          18.4 R EJ063474
     K08J24P  C2008 05 12.20701114 36 02.90 -25 37 33.3          19.8   EJ063H55
     K08J24P  C2008 05 12.21361114 36 08.26 -25 37 43.8          19.5   EJ063H55
     K08J24P  C2008 05 12.23918 14 36 55.17 -25 32 08.9          19.8 V EJ063F85
     K08J24P  C2008 05 12.25221 14 37 05.82 -25 32 39.4          19.9 V EJ063F85
     K08J24P  C2008 05 12.26474 14 37 16.03 -25 33 07.9          19.4 V EJ063F85
     K08J24P  C2008 05 12.38409 14 38 59.79 -25 33 21.7          18.6 R EJ063474
     K08J24P  C2008 05 12.38501 14 39 00.53 -25 33 23.4          18.7 R EJ063474
     K08J24P  C2008 05 12.39207 14 39 06.18 -25 33 37.3          18.8 R EJ063474
     K08J24P  C2008 05 12.39288 14 39 06.75 -25 33 38.7          18.7 R EJ063474
     K08J24P  C2008 05 12.39473 14 39 08.25 -25 33 42.2          18.6 R EJ063474
     K08J24P  C2008 05 12.48397 14 40 16.33 -25 36 13.2          18.8 R EJ063474
     K08J24P  C2008 05 12.48501 14 40 17.10 -25 36 14.4          18.9 R EJ063474
     K08J24P  C2008 05 12.48617 14 40 17.95 -25 36 16.0          18.8 R EJ063474
     K08J24P  C2008 05 12.48779 14 40 19.14 -25 36 18.4          18.7 R EJ063474
     K08J24P  C2008 05 12.48929 14 40 20.27 -25 36 20.4          19.0 R EJ063474
     K08J24P  C2008 05 12.57941 14 41 33.138-25 39 43.41         19.1 R EJ063E12

Observer details:
113 Volkssternwarte Drebach, Schoenbrunn.  Observer G. Lehmann.  0.5-m f/5
    reflector + CCD.
474 Mount John Observatory, Lake Tekapo.  Observer A. C. Gilmore.  Measurer
    P. M. Kilmartin.  1.0-m f/7.7 reflector + CCD.
651 Grasslands Observatory, Tucson.  Observer J. E. McGaha.  0.62-m f/5.1
    Newtonian reflector + CCD.
E12 Siding Spring Survey.  Observer R. H. McNaught.  Measurers E. C. Beshore,
    A. Boattini, G. J. Garradd, A. R. Gibbs, A. D. Grauer, R. E. Hill,
    R. A. Kowalski, S. M. Larson, R. H. McNaught.  0.5-m Uppsala Schmidt + CCD.
F85 Tiki Observatory, Punaauia.  Observer N. Teamo.  0.41-m f/8.0
    Ritchey-Chretien + 3056x3056 CCD.
H55 Astronomical Research Observatory, Charleston.  Observer R. Holmes.
    Measurers S. Foglia, R. Holmes.  0.81-m f/4.0 astrograph + CCD.
I77 CEAMIG-REA Observatory, Belo Horizonte.  Observers C. Jacques, E. Pimentel.
    Measurer C. Jacques.  0.30-m f/3.0 reflector + CCD.

Orbital elements:
2008 JP24                                                Earth MOID = 0.0015 AU
Epoch 2008 May 14.0 TT = JDT 2454600.5                  MPC
M  39.97452              (2000.0)            P               Q
n   0.70543727     Peri.  125.12752     -0.97281045     -0.23121517
a   1.2497710      Node    41.50844     +0.20537496     -0.88793154
e   0.2782678      Incl.    1.15797     +0.10705585     -0.39763945
P   1.40           H   26.6           G   0.15           U   6
Residuals in seconds of arc
080510 E12  0.0   0.0     080511 I77  0.3+  0.8-    080512 H55  0.3-  0.3-
080510 E12  0.1-  0.2-    080511 I77  0.6+  0.9-    080512 H55  0.0   0.5-
080510 E12  0.3-  0.4+    080511 I77  1.0+  0.8-    080512 F85  1.2+  0.7-
080510 E12  0.2-  0.0     080511 651  0.4-  1.2-    080512 F85  0.2-  0.5-
080510 474  0.0   0.5+    080511 651  0.4+  0.3-    080512 F85  0.5+  0.3-
080510 474  0.8+  0.7+    080511 651  0.9-  0.6-    080512 474  0.1+  0.2+
080510 474  0.0   0.5+    080511 474  0.0   0.7+    080512 474  0.1+  0.3+
080510 474  0.0   0.6+    080511 474  0.5+  0.5+    080512 474  0.7+  0.2+
080510 474  0.1-  0.7+    080511 474  0.1+  0.4+    080512 474  0.3-  0.3+
080510 474  0.2-  0.6+    080511 474  0.4-  0.3+    080512 474  0.2+  0.4+
080510 E12  0.3-  0.1+    080511 474  0.2-  0.7+    080512 474  0.1+  0.1-
080510 E12  0.6-  0.3+    080511 474  0.3-  0.4+    080512 474  0.0   0.2+
080510 113  0.3+  0.8-    080511 E12  0.8-  0.1+    080512 474  0.1-  0.3+
080510 113  0.3+  0.7-    080511 E12  0.5-  0.1-    080512 474  0.3-  0.2+
080510 113  0.2+  0.8-    080511 474  0.5-  0.6+    080512 474  0.0   0.3+
080510 113  0.6+  0.8-    080511 474  0.6-  0.7+    080512 E12  0.5-  0.2-
080510 113  0.5+  1.0-    080511 474  0.6-  0.5+

Ephemeris:
2008 JP24                a,e,i = 1.25, 0.28, 1                   q = 0.9020
Date    TT    R. A. (2000) Decl.     Delta      r     Elong.  Phase     V
2008 05 04    06 17.37   +21 11.4    0.0142   0.999    50.3   129.1    23.0
2008 05 05    07 01.00   +17 49.2    0.0110   1.003    59.9   119.5    21.6
2008 05 06    08 10.67   +10 54.4    0.00849  1.007    76.9   102.7    20.0
2008 05 07    09 51.21   -01 11.6    0.00738  1.011   103.3    76.3    18.6
2008 05 08    11 36.26   -13 26.6    0.00824  1.015   130.7    49.0    18.0
2008 05 09    12 53.00   -20 16.4    0.0106   1.019   148.7    30.9    18.1
2008 05 10    13 41.32   -23 19.2    0.0137   1.023   158.8    20.9    18.4
2008 05 11    14 12.03   -24 43.3    0.0172   1.027   164.4    15.4    18.7
2008 05 12    14 32.61   -25 25.5    0.0209   1.031   167.5    12.3    19.0
2008 05 13    14 47.15   -25 48.3    0.0246   1.035   169.3    10.4    19.3
2008 05 14    14 57.90   -26 01.4    0.0285   1.039   170.4     9.3    19.6
2008 05 15    15 06.13   -26 09.0    0.0323   1.043   171.1     8.6    19.8
2008 05 16    15 12.63   -26 13.5    0.0363   1.047   171.6     8.1    20.1
2008 05 17    15 17.87   -26 16.1    0.0402   1.051   171.9     7.8    20.3
2008 05 18    15 22.19   -26 17.3    0.0442   1.055   172.1     7.6    20.5
2008 05 19    15 25.81   -26 17.8    0.0483   1.060   172.2     7.4    20.7
2008 05 20    15 28.89   -26 17.6    0.0523   1.064   172.3     7.3    20.9
2008 05 21    15 31.53   -26 17.0    0.0564   1.068   172.3     7.3    21.0
2008 05 22    15 33.83   -26 16.0    0.0606   1.072   172.2     7.4    21.2
2008 05 23    15 35.85   -26 14.9    0.0647   1.077   172.1     7.5    21.4
2008 05 24    15 37.64   -26 13.5    0.0689   1.081   171.8     7.6    21.5

2008 05 26    15 40.67   -26 10.4    0.0774   1.090   171.2     8.2    21.8
2008 05 28    15 43.17   -26 06.9    0.0861   1.098   170.3     8.9    22.1
2008 05 30    15 45.28   -26 03.2    0.0949   1.107   169.2     9.8    22.3
2008 06 01    15 47.13   -25 59.4    0.104    1.116   168.0    10.9    22.6
2008 06 03    15 48.81   -25 55.6    0.113    1.125   166.7    12.0    22.8

Gareth V. Williams           (C) Copyright 2008 MPC           M.P.E.C. 2008-J63

Read MPEC 2008-J62 Read MPEC 2008-J64


Our Web policy. Index to the CBAT/MPC/ICQ pages.


Valid HTML 4.01!